{"data":{"norad_id":68340,"intl_designator":"2026-059V","name":"STARLINK-37185","alt_names":[],"object_type":"PAYLOAD","status":"ACTIVE","operator":null,"country":"US","launch_date":"2026-03-22","launch_site_code":"AFETR","launch_vehicle":null,"mission":null,"orbit_class":"UNKNOWN","rcs_meters":null,"size_class":null,"mass_kg":null,"dimensions":null,"purposes":["comms"],"wikipedia_slug":null,"has_3d_model":false,"image_url":null,"decayed_at":null,"tle_current":{"epoch":"2026-05-25T00:00:02.000160Z","epoch_age_seconds":71445,"freshness":"FRESH","line1":"1 68340U 26059V   26145.00002315  .00068391  00000+0  19557-2 0  9997","line2":"2 68340  53.1592 349.7800 0000951  84.7574 346.5556 15.35369227  5944","mean_motion":15.35369227,"eccentricity":9.51e-5,"inclination_deg":53.1592,"raan_deg":349.78,"arg_perigee_deg":84.7574,"mean_anomaly_deg":346.5556,"bstar":0.0019557,"rev_number":594,"period_min":93.788515145224,"perigee_km":459.17371875441,"apogee_km":460.4742989383,"semimajor_km":6837.9610088464,"source":"CELESTRAK","updated_at":"2026-05-25T13:38:21.925639Z"}}}